This is the latest recevied weather packets stored in our database for station/object N9ALD. If no packets are shown the sender has not sent any weather packets the latest 10 day(s).
| Time | Temp. | Humidity | Pressure | Rain* | Wind** | Luminosity | Snow |
|---|---|---|---|---|---|---|---|
| 1776992947 | 20° C | 50% | 1006.8 hPa | 0 mm | - | 0 W/m² | - |
| 1776992643 | 20° C | 49% | 1006.8 hPa | 0 mm | - | 0 W/m² | - |
| 1776992340 | 20.56° C | 49% | 1006.7 hPa | 0 mm | - | 0 W/m² | - |
| 1776992037 | 20.56° C | 47% | 1006.7 hPa | 0 mm | - | 0 W/m² | - |
| 1776991733 | 21.11° C | 46% | 1006.8 hPa | 0 mm | - | 0 W/m² | - |
| 1776991430 | 21.67° C | 45% | 1007 hPa | 0 mm | - | 0 W/m² | - |
| 1776991126 | 22.22° C | 44% | 1006.8 hPa | 0 mm | - | 1 W/m² | - |
| 1776990822 | 22.78° C | 43% | 1006.8 hPa | 0 mm | - | 2 W/m² | - |
| 1776990520 | 22.78° C | 42% | 1006.8 hPa | 0 mm | - | 4 W/m² | - |
| 1776990217 | 23.33° C | 41% | 1006.9 hPa | 0 mm | - | 6 W/m² | - |
| 1776989912 | 23.89° C | 40% | 1006.9 hPa | 0 mm | - | 9 W/m² | - |
| 1776989607 | 23.89° C | 39% | 1006.9 hPa | 0 mm | - | 12 W/m² | - |
| 1776989304 | 24.44° C | 39% | 1007 hPa | 0 mm | - | 15 W/m² | - |
| 1776989001 | 24.44° C | 38% | 1006.9 hPa | 0 mm | - | 18 W/m² | - |
| 1776988697 | 25° C | 38% | 1006.8 hPa | 0 mm | - | 23 W/m² | - |
| 1776988395 | 25° C | 37% | 1006.9 hPa | 0 mm | - | 27 W/m² | - |
| 1776988090 | 25.56° C | 36% | 1006.9 hPa | 0 mm | - | 32 W/m² | - |
| 1776987787 | 25.56° C | 36% | 1006.9 hPa | 0 mm | - | 39 W/m² | - |
| 1776987483 | 25.56° C | 35% | 1007.1 hPa | 0 mm | - | 45 W/m² | - |
| 1776987181 | 25.56° C | 35% | 1007 hPa | 0 mm | - | 52 W/m² | - |
| 1776986876 | 26.11° C | 34% | 1007 hPa | 0 mm | - | 60 W/m² | - |
| 1776986572 | 26.11° C | 34% | 1007 hPa | 0 mm | - | 68 W/m² | - |
| 1776986269 | 26.11° C | 35% | 1006.9 hPa | 0 mm | - | 78 W/m² | - |
| 1776985967 | 26.11° C | 35% | 1007.1 hPa | 0 mm | - | 88 W/m² | - |
| 1776985663 | 26.67° C | 34% | 1007.2 hPa | 0 mm | - | 97 W/m² | - |
* Rain latest hour (hover to see other rain measurements)
** Current wind speed in m/s (hover to see current wind gust speed)